Погода в Туиме

Россия / Республика Хакасия     54°20′18″N   89°56′42″E
темп.,
°C
ветер,
м/с
пор.,
м/с
влажн.,
%
обл.,
%
осадки,
мм/ч
давл.,
гПа
погр.,
м
12 мая, ср
ср1201:00+6сз1165100 0.0 101510
04:00+5зсз1168100 0.0 101510
07:00+7ссз126493 0.0 101698
10:00+11ссв3543100 0.0 1014758
13:00+14св4533100 0.0 10132127
16:00+15св5432100 0.0 10122447
19:00+13св3539100 0.0 10131563
22:00+9ссв116089 0.0 101410
13 мая, чт
чт1301:00+8с116323 0.0 101513
04:00+5ююз11745 0.0 101610
07:00+8ююз116214 0.0 1016100
10:00+13ссв124146 0.0 10141489
13:00+15ссв3332100 0.0 10132358
16:00+15св4330100 0.0 10122079
19:00+13з214191 0.0 10121246
22:00+9зюз116619 0.0 101311
14 мая, пт
пт1401:00+8юз226996 0.0 101219
04:00+6юз228044 0.0 101326
07:00+8юз2470100 0.0 1012187
10:00+11з5761100 0.4 10111352
13:00+7с4688100 2.6 10131043
16:00+9сз796189 3.8 10141559
19:00+4сз51082100 5.2 1019934
22:00+3зсз277085 0.1 1022252
15 мая, сб
сб1501:00+1зюз357952 0.1 102489
04:00+2зюз31072100 0.0 1024310
07:00+4зюз6115784 0.0 10241114
10:00+7зюз61055100 0.0 1022834
13:00+11з7105188 0.0 10201015
16:00+11зюз81357100 0.9 1019964
19:00+9зюз7156753 1.2 1021745
22:00+9юз7166798 0.0 1020599
16 мая, вс
вс1601:00+10зюз71665100 0.1 1019656
04:00+10зюз71673100 0.7 1018675
07:00+11зюз8176398 0.8 1016815
10:00+15зюз9155373 0.0 10161080
13:00+18зюз8124626 0.0 10131352
16:00+19зюз8104664 0.0 10111323
19:00+16зюз61365100 3.4 10111104
22:00+11з61588100 1.9 1011589